Regional Weather Roundup
Issued by NWS

Home | Current Version | Previous Version | Text Only | Print | Product List | Glossary On
Versions: 1 2 3 4 5 6 7 8 9 10 11 12 13 14 15 16 17 18 19 20 21 22 23 24 25 26 27 28 29 30 31 32 33 34 35 36 37 38 39 40 41 42 43 44 45 46 47 48 49 50
496
ASUS44 KLIX 230405
RWRLA
LOUISIANA WEATHER ROUNDUP
NATIONAL WEATHER SERVICE NEW ORLEANS LA
1000 PM CST SAT NOV 22 2014

NOTE: "FAIR" INDICATES FEW OR NO CLOUDS BELOW 12,000 FEET WITH NO
      SIGNIFICANT WEATHER AND/OR OBSTRUCTIONS TO VISIBILITY.
      SKY/WX - SKY CONDITION AND SIGNIFICANT WEATHER.
      TMP - AIR TEMPERATURE.    DP   - DEWPOINT TEMPERATURE.
      RH  - RELATIVE HUMIDITY.  PRES - PRESSURE.
      HX  - HEAT INDEX.         WCI  - WIND CHILL INDEX.

*  THESE STATIONS ARE NOT NWS OR FAA STATIONS AND ARE NOT UNDER
   NWS QUALITY CONTROL.

LAZ040-048-061>063-065-066-069-230500-
SOUTHEAST LOUISIANA

CITY           SKY/WX    TMP DP  RH WIND       PRES   REMARKS
N.O. AUDUBON   NOT AVBL
N.O. INTL ARPT CLOUDY    64  60  87 E10G22    29.94S
N.O. LAKEFRONT CLOUDY    62  60  93 E23G32    29.94F FOG
N.O. DOWNTOWN* CLOUDY    61  55  82 NE5       29.95S
SLIDELL        CLOUDY    64  61  90 E8        29.94F
BATON ROUGE    CLOUDY    64  61  90 E10       29.93S
BOOTHVILLE     CLOUDY    64  64 100 E8        29.96S
BELLE CHASSE   CLOUDY    66  61  84 E13G24    29.92F
BOGALUSA*        N/A     65  60  83 SE7       29.96F
NEW ROADS*     CLOUDY    64  60  88 E9G18     29.91F
GONZALES*      CLOUDY    64  64 100 E6        29.92F
HAMMOND*       CLOUDY    64  61  88 SE9       29.95F
HOUMA*         CLOUDY    65  64  96 E10       29.92F FOG
PORT FOURCHON* MOCLDY    66  64  94 E10       29.94F

$$

LAZ041-044-053-054-230500-
SOUTHWEST LOUISIANA

CITY           SKY/WX    TMP DP  RH WIND       PRES   REMARKS
LAKE CHARLES   RAIN      65  63  93 E8        29.86F FOG
LAFAYETTE      CLOUDY    65  61  87 VRB6      29.87F
PATTERSON      CLOUDY    66  63  88 E9        29.91F
SALT POINT       N/A     68  64  87 VRB6      29.86F
NEW IBERIA     CLOUDY    67  62  84 E12       29.87F
CHENAULT AIRPK RAIN      65  64  97 SE9       29.88S

$$

LAZ027-028-230500-
CENTRAL LOUISIANA

CITY           SKY/WX    TMP DP  RH WIND       PRES   REMARKS
FORT POLK      CLOUDY    63  61  93 SE12G17   29.85F
ALEXANDRIA INT LGT RAIN  64  60  87 SE16G25   29.86F
ALEXANDRIA     CLOUDY    64  59  83 SE10      29.88F

$$

LAZ001-002-230500-
NORTHWEST LOUISIANA

CITY           SKY/WX    TMP DP  RH WIND       PRES   REMARKS
SHREVEPORT     HVY RAIN  62  60  93 SE10      29.82F
BARKSDALE AFB  LGT RAIN  61  61 100 SE8       29.83F
DTN SHREVEPORT RAIN      61  58  90 E8        29.83F FOG

$$

LAZ014-016-230500-
NORTHEAST LOUISIANA

CITY           SKY/WX    TMP DP  RH WIND       PRES   REMARKS
MONROE         MOCLDY    62  54  74 SE7       29.90F
TALLULAH       CLEAR     60  53  77 SE13      29.93F

$$




USA.gov is the U.S. government's official web portal to all federal, state and local government web resources and services.